Location: Pescara
(42.4670°N, 14.2170°E)
Time: 03:15:25
(UTC+02:00)

ISS - Pass Details

Date: 15 May 2021
Orbit: 417 x 422 km, 51.6° (Epoch: 14 June)

Event Time Altitude Azimuth Distance (km) Brightness Sun altitude
Rises 22:00:39 0° 236° (SW) 2,352 0.2 -16.0°
Reaches altitude 10° 22:02:44 10° 237° (WSW) 1,492 -0.8 -16.2°
Maximum altitude 22:06:05 86° 325° (NW) 424 -3.8 -16.6°
Drops below altitude 10° 22:09:28 10° 55° (NE) 1,503 -1.0 -17.1°
Sets 22:11:34 0° 56° (NE) 2,371 0.0 -17.3°
